Time,TemperatureF,DewpointF,PressureIn,WindDirection,WindDirectionDegrees,WindSpeedMPH,WindSpeedGustMPH,Humidity,HourlyPrecipIn,Conditions,Clouds,dailyrainin,SoftwareType,DateUTC
2013-01-03 00:21:00,38.0,37.0,30.15,ESE,114,0.0,0.0,94,0.00,,,0.00,weatherlink.com 1.10,2013-01-03 05:21:00,
2013-01-03 00:36:00,38.0,37.0,30.15,ESE,114,0.0,0.0,94,0.00,,,0.00,weatherlink.com 1.10,2013-01-03 05:36:00,
2013-01-03 00:51:00,38.0,37.0,30.15,ESE,114,0.0,0.0,94,0.00,,,0.00,weatherlink.com 1.10,2013-01-03 05:51:00,
2013-01-03 01:06:00,38.1,37.0,30.13,ESE,114,0.0,1.0,95,0.00,,,0.00,weatherlink.com 1.10,2013-01-03 06:06:00,
2013-01-03 01:21:00,38.1,37.0,30.13,ESE,114,0.0,0.0,95,0.00,,,0.00,weatherlink.com 1.10,2013-01-03 06:21:00,
2013-01-03 01:36:00,38.1,37.0,30.13,East,93,0.0,2.0,95,0.00,,,0.00,weatherlink.com 1.10,2013-01-03 06:36:00,
2013-01-03 01:51:00,38.1,37.0,30.14,East,93,0.0,1.0,95,0.00,,,0.00,weatherlink.com 1.10,2013-01-03 06:51:00,
2013-01-03 02:08:00,38.2,37.0,30.14,East,93,1.0,2.0,95,0.00,,,0.00,weatherlink.com 1.10,2013-01-03 07:08:00,
2013-01-03 02:21:00,38.2,37.0,30.15,East,93,0.0,0.0,95,0.00,,,0.00,weatherlink.com 1.10,2013-01-03 07:21:00,
2013-01-03 02:36:00,38.2,37.0,30.15,East,93,0.0,1.0,95,0.00,,,0.00,weatherlink.com 1.10,2013-01-03 07:36:00,
2013-01-03 02:51:00,38.3,37.0,30.15,East,93,0.0,1.0,95,0.00,,,0.00,weatherlink.com 1.10,2013-01-03 07:51:00,
2013-01-03 03:06:00,38.3,37.0,30.15,East,93,0.0,2.0,95,0.00,,,0.00,weatherlink.com 1.10,2013-01-03 08:06:00,
2013-01-03 03:21:00,38.4,37.0,30.15,East,93,0.0,0.0,95,0.00,,,0.00,weatherlink.com 1.10,2013-01-03 08:21:00,
2013-01-03 03:36:00,38.4,37.0,30.15,East,93,0.0,0.0,95,0.00,,,0.00,weatherlink.com 1.10,2013-01-03 08:36:00,
2013-01-03 03:51:00,38.4,37.0,30.14,East,95,1.0,2.0,95,0.00,,,0.00,weatherlink.com 1.10,2013-01-03 08:51:00,
2013-01-03 04:06:00,38.4,37.0,30.14,East,95,0.0,2.0,95,0.00,,,0.00,weatherlink.com 1.10,2013-01-03 09:06:00,
2013-01-03 04:21:00,38.4,37.0,30.14,East,95,0.0,1.0,95,0.00,,,0.00,weatherlink.com 1.10,2013-01-03 09:21:00,
2013-01-03 04:36:00,38.4,37.0,30.14,East,95,0.0,0.0,95,0.00,,,0.00,weatherlink.com 1.10,2013-01-03 09:36:00,
2013-01-03 04:51:00,38.4,37.0,30.14,East,95,0.0,2.0,96,0.00,,,0.00,weatherlink.com 1.10,2013-01-03 09:51:00,
2013-01-03 05:06:00,38.5,38.0,30.14,East,90,0.0,2.0,96,0.00,,,0.00,weatherlink.com 1.10,2013-01-03 10:06:00,
2013-01-03 05:21:00,38.5,38.0,30.15,East,90,0.0,2.0,96,0.00,,,0.00,weatherlink.com 1.10,2013-01-03 10:21:00,
2013-01-03 05:36:00,38.5,38.0,30.15,East,90,0.0,2.0,96,0.00,,,0.00,weatherlink.com 1.10,2013-01-03 10:36:00,
2013-01-03 05:51:00,38.5,38.0,30.14,East,90,0.0,3.0,96,0.00,,,0.00,weatherlink.com 1.10,2013-01-03 10:51:00,
2013-01-03 06:06:00,38.5,38.0,30.14,East,90,0.0,2.0,96,0.00,,,0.00,weatherlink.com 1.10,2013-01-03 11:06:00,
2013-01-03 06:21:00,38.5,38.0,30.15,East,90,0.0,1.0,96,0.00,,,0.00,weatherlink.com 1.10,2013-01-03 11:21:00,
2013-01-03 06:38:00,38.5,38.0,30.16,East,90,0.0,0.0,96,0.00,,,0.00,weatherlink.com 1.10,2013-01-03 11:38:00,
2013-01-03 06:52:00,38.5,38.0,30.17,East,90,0.0,2.0,96,0.00,,,0.00,weatherlink.com 1.10,2013-01-03 11:52:00,
2013-01-03 07:07:00,38.5,38.0,30.18,ENE,62,0.0,3.0,96,0.00,,,0.00,weatherlink.com 1.10,2013-01-03 12:07:00,
2013-01-03 07:22:00,38.5,38.0,30.17,NE,53,0.0,2.0,96,0.00,,,0.00,weatherlink.com 1.10,2013-01-03 12:22:00,
2013-01-03 07:37:00,38.5,38.0,30.17,NE,53,0.0,2.0,96,0.00,,,0.00,weatherlink.com 1.10,2013-01-03 12:37:00,
2013-01-03 07:52:00,38.5,38.0,30.17,NE,53,0.0,1.0,96,0.00,,,0.00,weatherlink.com 1.10,2013-01-03 12:52:00,
2013-01-03 08:07:00,38.5,38.0,30.17,NNE,24,3.0,3.0,96,0.00,,,0.00,weatherlink.com 1.10,2013-01-03 13:07:00,
2013-01-03 08:22:00,38.5,38.0,30.18,NE,51,0.0,3.0,96,0.00,,,0.00,weatherlink.com 1.10,2013-01-03 13:22:00,
2013-01-03 08:37:00,38.6,38.0,30.19,NE,51,0.0,4.0,96,0.00,,,0.00,weatherlink.com 1.10,2013-01-03 13:37:00,
2013-01-03 08:52:00,38.7,38.0,30.19,NNE,16,0.0,2.0,96,0.00,,,0.00,weatherlink.com 1.10,2013-01-03 13:52:00,
2013-01-03 09:07:00,38.8,38.0,30.19,NE,52,1.0,5.0,95,0.00,,,0.00,weatherlink.com 1.10,2013-01-03 14:07:00,
2013-01-03 09:22:00,38.8,38.0,30.20,East,83,0.0,3.0,95,0.00,,,0.00,weatherlink.com 1.10,2013-01-03 14:22:00,
2013-01-03 09:37:00,38.8,38.0,30.20,East,88,0.0,5.0,95,0.00,,,0.00,weatherlink.com 1.10,2013-01-03 14:37:00,
2013-01-03 09:52:00,39.0,38.0,30.20,East,83,0.0,3.0,94,0.00,,,0.00,weatherlink.com 1.10,2013-01-03 14:52:00,
2013-01-03 10:07:00,39.1,37.0,30.20,East,83,0.0,3.0,93,0.00,,,0.00,weatherlink.com 1.10,2013-01-03 15:07:00,
2013-01-03 10:22:00,39.4,38.0,30.20,East,83,0.0,2.0,93,0.00,,,0.00,weatherlink.com 1.10,2013-01-03 15:22:00,
2013-01-03 10:37:00,39.5,37.0,30.20,East,83,0.0,1.0,92,0.00,,,0.00,weatherlink.com 1.10,2013-01-03 15:37:00,
2013-01-03 10:52:00,39.7,37.0,30.20,East,83,0.0,2.0,91,0.00,,,0.00,weatherlink.com 1.10,2013-01-03 15:52:00,
2013-01-03 11:07:00,39.8,37.0,30.20,East,83,0.0,2.0,90,0.00,,,0.00,weatherlink.com 1.10,2013-01-03 16:07:00,
2013-01-03 11:22:00,39.9,37.0,30.19,NNE,21,1.0,3.0,89,0.00,,,0.00,weatherlink.com 1.10,2013-01-03 16:22:00,
2013-01-03 11:37:00,40.1,37.0,30.18,NNE,21,0.0,3.0,89,0.00,,,0.00,weatherlink.com 1.10,2013-01-03 16:37:00,
2013-01-03 11:52:00,40.4,37.0,30.17,NNE,26,1.0,2.0,88,0.00,,,0.00,weatherlink.com 1.10,2013-01-03 16:52:00,
2013-01-03 12:07:00,40.5,37.0,30.16,NNE,32,0.0,3.0,88,0.00,,,0.00,weatherlink.com 1.10,2013-01-03 17:07:00,
2013-01-03 12:22:00,40.7,38.0,30.16,NNE,32,0.0,2.0,88,0.00,,,0.00,weatherlink.com 1.10,2013-01-03 17:22:00,
2013-01-03 12:37:00,40.9,37.0,30.15,NNE,32,0.0,2.0,87,0.00,,,0.00,weatherlink.com 1.10,2013-01-03 17:37:00,
2013-01-03 12:52:00,41.0,37.0,30.14,NNE,32,0.0,1.0,87,0.00,,,0.00,weatherlink.com 1.10,2013-01-03 17:52:00,
2013-01-03 13:07:00,41.0,37.0,30.14,NNE,32,0.0,3.0,86,0.00,,,0.00,weatherlink.com 1.10,2013-01-03 18:07:00,
2013-01-03 13:22:00,41.0,37.0,30.14,NNE,32,1.0,1.0,86,0.00,,,0.00,weatherlink.com 1.10,2013-01-03 18:22:00,
2013-01-03 13:37:00,41.0,37.0,30.14,NNE,32,1.0,3.0,86,0.00,,,0.00,weatherlink.com 1.10,2013-01-03 18:37:00,
2013-01-03 13:52:00,41.0,37.0,30.14,North,349,4.0,6.0,86,0.00,,,0.00,weatherlink.com 1.10,2013-01-03 18:52:00,
2013-01-03 14:07:00,41.0,37.0,30.15,NW,315,2.0,5.0,85,0.00,,,0.00,weatherlink.com 1.10,2013-01-03 19:07:00,
2013-01-03 14:52:00,40.8,36.0,30.15,NNW,335,2.0,7.0,82,0.00,,,0.00,weatherlink.com 1.10,2013-01-03 19:52:00,
2013-01-03 15:07:00,40.7,36.0,30.16,NW,322,1.0,4.0,83,0.00,,,0.00,weatherlink.com 1.10,2013-01-03 20:07:00,
2013-01-03 15:22:00,40.6,36.0,30.16,NNW,336,3.0,6.0,83,0.00,,,0.00,weatherlink.com 1.10,2013-01-03 20:22:00,
2013-01-03 15:52:00,40.2,35.0,30.17,North,355,0.0,4.0,82,0.00,,,0.00,weatherlink.com 1.10,2013-01-03 20:52:00,
2013-01-03 16:07:00,40.3,35.0,30.18,NW,325,1.0,4.0,82,0.00,,,0.00,weatherlink.com 1.10,2013-01-03 21:07:00,
2013-01-03 16:22:00,40.3,35.0,30.18,NW,320,1.0,3.0,81,0.00,,,0.00,weatherlink.com 1.10,2013-01-03 21:22:00,
2013-01-03 16:37:00,40.2,34.0,30.18,NW,320,0.0,3.0,79,0.00,,,0.00,weatherlink.com 1.10,2013-01-03 21:37:00,
2013-01-03 16:52:00,40.2,35.0,30.19,NW,321,0.0,3.0,80,0.00,,,0.00,weatherlink.com 1.10,2013-01-03 21:52:00,
2013-01-03 17:07:00,40.1,34.0,30.18,NW,321,0.0,0.0,80,0.00,,,0.00,weatherlink.com 1.10,2013-01-03 22:07:00,
2013-01-03 17:22:00,40.0,34.0,30.18,NW,321,0.0,1.0,80,0.00,,,0.00,weatherlink.com 1.10,2013-01-03 22:22:00,
2013-01-03 17:37:00,39.5,34.0,30.19,NW,321,0.0,2.0,80,0.00,,,0.00,weatherlink.com 1.10,2013-01-03 22:37:00,
2013-01-03 17:52:00,38.9,34.0,30.19,NW,321,0.0,0.0,81,0.00,,,0.00,weatherlink.com 1.10,2013-01-03 22:52:00,
2013-01-03 18:07:00,38.1,33.0,30.20,NW,321,0.0,0.0,81,0.00,,,0.00,weatherlink.com 1.10,2013-01-03 23:07:00,
2013-01-03 18:22:00,37.4,32.0,30.20,NW,321,0.0,0.0,82,0.00,,,0.00,weatherlink.com 1.10,2013-01-03 23:22:00,
2013-01-03 18:37:00,36.5,32.0,30.21,NW,321,0.0,0.0,84,0.00,,,0.00,weatherlink.com 1.10,2013-01-03 23:37:00,
2013-01-03 19:07:00,34.9,31.0,30.21,NW,321,0.0,0.0,86,0.00,,,0.00,weatherlink.com 1.10,2013-01-04 00:07:00,
2013-01-03 19:22:00,34.2,31.0,30.22,NW,321,0.0,0.0,87,0.00,,,0.00,weatherlink.com 1.10,2013-01-04 00:22:00,
2013-01-03 19:38:00,33.6,30.0,30.22,NW,321,0.0,1.0,87,0.00,,,0.00,weatherlink.com 1.10,2013-01-04 00:38:00,
2013-01-03 19:53:00,33.0,30.0,30.22,NW,321,0.0,2.0,87,0.00,,,0.00,weatherlink.com 1.10,2013-01-04 00:53:00,
2013-01-03 20:38:00,31.2,28.0,30.23,WNW,288,0.0,3.0,89,0.00,,,0.00,weatherlink.com 1.10,2013-01-04 01:38:00,
2013-01-03 20:53:00,30.8,28.0,30.23,West,271,1.0,3.0,90,0.00,,,0.00,weatherlink.com 1.10,2013-01-04 01:53:00,
2013-01-03 21:08:00,30.3,28.0,30.23,West,271,0.0,3.0,90,0.00,,,0.00,weatherlink.com 1.10,2013-01-04 02:08:00,
2013-01-03 21:23:00,29.9,27.0,30.23,West,263,0.0,2.0,90,0.00,,,0.00,weatherlink.com 1.10,2013-01-04 02:23:00,
2013-01-03 21:38:00,29.6,27.0,30.23,West,263,1.0,2.0,90,0.00,,,0.00,weatherlink.com 1.10,2013-01-04 02:38:00,
2013-01-03 21:53:00,29.4,27.0,30.24,West,261,1.0,4.0,91,0.00,,,0.00,weatherlink.com 1.10,2013-01-04 02:53:00,
2013-01-03 22:08:00,29.2,27.0,30.23,WSW,244,1.0,4.0,91,0.00,,,0.00,weatherlink.com 1.10,2013-01-04 03:08:00,
2013-01-03 22:23:00,29.0,27.0,30.23,WSW,252,2.0,5.0,92,0.00,,,0.00,weatherlink.com 1.10,2013-01-04 03:23:00,
2013-01-03 22:38:00,28.9,27.0,30.24,WSW,244,1.0,4.0,92,0.00,,,0.00,weatherlink.com 1.10,2013-01-04 03:38:00,
2013-01-03 22:53:00,28.7,27.0,30.24,WSW,244,0.0,3.0,92,0.00,,,0.00,weatherlink.com 1.10,2013-01-04 03:53:00,
2013-01-03 23:08:00,28.5,27.0,30.24,WSW,250,1.0,4.0,93,0.00,,,0.00,weatherlink.com 1.10,2013-01-04 04:08:00,
2013-01-03 23:23:00,28.4,27.0,30.25,WSW,250,2.0,4.0,93,0.00,,,0.00,weatherlink.com 1.10,2013-01-04 04:23:00,
2013-01-03 23:38:00,28.4,27.0,30.25,WSW,254,0.0,5.0,93,0.00,,,0.00,weatherlink.com 1.10,2013-01-04 04:38:00,
2013-01-03 23:53:00,28.7,27.0,30.25,WSW,256,1.0,4.0,94,0.00,,,0.00,weatherlink.com 1.10,2013-01-04 04:53:00,